"Period start","avg(HW err(1)/warn(2) (#))","avg(Visibility (m))","avg(Weather code (#))","avg(Precip intensity (mm/h))","min(HW err(1)/warn(2) (#))","max(HW err(1)/warn(2) (#))","std(HW err(1)/warn(2) (#))","med(HW err(1)/warn(2) (#))","min(Visibility (m))","max(Visibility (m))","std(Visibility (m))","med(Visibility (m))","min(Weather code (#))","max(Weather code (#))","std(Weather code (#))","med(Weather code (#))","min(Precip intensity (mm/h))","max(Precip intensity (mm/h))","std(Precip intensity (mm/h))","med(Precip intensity (mm/h))"
2016-05-22 00:00:00,2,15920,0,0.00,2,2,0,2,11954,21256,3257,15130,0,0,0,0,0.00,0.00,0.00,0.00
2016-05-22 00:10:00,2,17480,0,0.00,2,2,0,2,13387,23510,3022,17416,0,0,0,0,0.00,0.00,0.00,0.00
2016-05-22 00:20:00,2,15711,0,0.00,2,2,0,2,10166,20811,3345,16448,0,0,0,0,0.00,0.00,0.00,0.00
2016-05-22 00:30:00,2,16638,0,0.00,2,2,0,2,10663,21720,3398,17488,0,0,0,0,0.00,0.00,0.00,0.00
2016-05-22 00:40:00,2,15934,0,0.00,2,2,0,2,12005,25059,4085,14168,0,0,0,0,0.00,0.00,0.00,0.00
2016-05-22 00:50:00,2,16966,0,0.00,2,2,0,2,12679,20257,2875,17192,0,0,0,0,0.00,0.00,0.00,0.00
2016-05-22 01:00:00,2,19278,0,0.00,2,2,0,2,10296,30657,6388,18596,0,0,0,0,0.00,0.00,0.00,0.00
2016-05-22 01:10:00,2,17299,0,0.00,2,2,0,2,12855,28223,4112,16173,0,0,0,0,0.00,0.00,0.00,0.00
2016-05-22 01:20:00,2,19145,0,0.00,2,2,0,2,13897,26932,3561,18627,0,0,0,0,0.00,0.00,0.00,0.00
2016-05-22 01:30:00,2,19230,0,0.00,2,2,0,2,13921,27425,4833,17057,0,0,0,0,0.00,0.00,0.00,0.00
2016-05-22 01:40:00,2,22196,0,0.00,2,2,0,2,14213,31989,4370,21988,0,0,0,0,0.00,0.00,0.00,0.00
2016-05-22 01:50:00,2,21582,0,0.00,2,2,0,2,14810,36541,6658,19003,0,0,0,0,0.00,0.00,0.00,0.00
2016-05-22 02:00:00,2,22533,0,0.00,2,2,0,2,14523,36720,6197,21708,0,0,0,0,0.00,0.00,0.00,0.00
2016-05-22 02:10:00,2,17393,0,0.00,2,2,0,2,13363,25663,3392,17357,0,0,0,0,0.00,0.00,0.00,0.00
2016-05-22 02:20:00,2,21983,0,0.00,2,2,0,2,11415,44749,9324,20826,0,0,0,0,0.00,0.00,0.00,0.00
2016-05-22 02:30:00,2,18909,0,0.00,2,2,0,2,13179,26900,4813,18770,0,0,0,0,0.00,0.00,0.00,0.00
2016-05-22 02:40:00,2,24594,0,0.00,2,2,0,2,14173,38379,8027,22222,0,0,0,0,0.00,0.00,0.00,0.00
2016-05-22 02:50:00,2,26187,0,0.00,2,2,0,2,17776,38363,6519,25272,0,0,0,0,0.00,0.00,0.00,0.00
2016-05-22 03:00:00,2,24579,0,0.00,2,2,0,2,18684,31868,3829,24639,0,0,0,0,0.00,0.00,0.00,0.00
2016-05-22 03:10:00,2,22807,0,0.00,2,2,0,2,16085,29746,4165,23474,0,0,0,0,0.00,0.00,0.00,0.00
2016-05-22 03:20:00,2,21666,0,0.00,2,2,0,2,15454,30385,4476,21456,0,0,0,0,0.00,0.00,0.00,0.00
2016-05-22 03:30:00,2,23067,0,0.00,2,2,0,2,15178,32540,6043,21598,0,0,0,0,0.00,0.00,0.00,0.00
2016-05-22 03:40:00,2,31260,0,0.00,2,2,0,2,17553,40988,6640,30588,0,0,0,0,0.00,0.00,0.00,0.00
2016-05-22 03:50:00,2,23995,0,0.00,2,2,0,2,17317,37282,5976,22122,0,0,0,0,0.00,0.00,0.00,0.00
2016-05-22 04:00:00,2,27707,0,0.00,2,2,0,2,16385,50000,9296,23788,0,0,0,0,0.00,0.00,0.00,0.00
2016-05-22 04:10:00,2,33757,0,0.00,2,2,0,2,24339,47204,7348,32538,0,0,0,0,0.00,0.00,0.00,0.00
2016-05-22 04:20:00,2,34232,0,0.00,2,2,0,2,25163,47059,6942,34512,0,0,0,0,0.00,0.00,0.00,0.00
2016-05-22 04:30:00,2,33589,0,0.00,2,2,0,2,20291,45078,7391,32748,0,0,0,0,0.00,0.00,0.00,0.00
2016-05-22 04:40:00,2,31441,0,0.00,2,2,0,2,25108,50000,7953,28691,0,0,0,0,0.00,0.00,0.00,0.00
2016-05-22 04:50:00,2,27678,0,0.00,2,2,0,2,21578,35279,5434,26274,0,0,0,0,0.00,0.00,0.00,0.00
2016-05-22 05:00:00,2,30360,0,0.00,2,2,0,2,21227,40428,6233,30262,0,0,0,0,0.00,0.00,0.00,0.00
2016-05-22 05:10:00,2,29164,0,0.00,2,2,0,2,23128,43699,5957,29233,0,0,0,0,0.00,0.00,0.00,0.00
2016-05-22 05:20:00,2,26803,0,0.00,2,2,0,2,21534,35105,4747,26702,0,0,0,0,0.00,0.00,0.00,0.00
2016-05-22 05:30:00,2,23106,0,0.00,2,2,0,2,14756,28605,4694,25086,0,0,0,0,0.00,0.00,0.00,0.00
2016-05-22 05:40:00,2,33389,0,0.00,2,2,0,2,22546,50000,8797,32304,0,0,0,0,0.00,0.00,0.00,0.00
2016-05-22 05:50:00,2,29895,0,0.00,2,2,0,2,19145,43806,7562,28228,0,0,0,0,0.00,0.00,0.00,0.00
2016-05-22 06:00:00,2,27193,0,0.00,2,2,0,2,18308,38011,6235,27106,0,0,0,0,0.00,0.00,0.00,0.00
2016-05-22 06:10:00,1,29686,0,0.00,0,2,1,1,23591,35234,4143,29510,0,0,0,0,0.00,0.00,0.00,0.00
2016-05-22 06:20:00,1,28682,0,0.00,0,2,1,0,23398,38166,4448,27075,0,0,0,0,0.00,0.00,0.00,0.00
2016-05-22 06:30:00,0,33867,0,0.00,0,2,1,0,24810,40944,4833,34114,0,0,0,0,0.00,0.00,0.00,0.00
2016-05-22 06:40:00,0,31622,0,0.00,0,0,0,0,22010,43243,5929,31202,0,0,0,0,0.00,0.00,0.00,0.00
2016-05-22 06:50:00,0,25957,0,0.00,0,0,0,0,21418,31678,3575,25834,0,0,0,0,0.00,0.00,0.00,0.00
2016-05-22 07:00:00,0,24260,0,0.00,0,0,0,0,16533,32482,4382,23796,0,0,0,0,0.00,0.00,0.00,0.00
2016-05-22 07:10:00,1,23914,0,0.00,0,2,1,1,18861,30803,3761,23290,0,0,0,0,0.00,0.00,0.00,0.00
2016-05-22 07:20:00,2,29025,0,0.00,0,2,1,2,24299,35334,3309,28596,0,0,0,0,0.00,0.00,0.00,0.00
2016-05-22 07:30:00,2,27808,0,0.00,2,2,0,2,19948,50000,9022,24542,0,0,0,0,0.00,0.00,0.00,0.00
2016-05-22 07:40:00,1,28867,0,0.00,0,2,1,1,19458,42460,6904,28950,0,0,0,0,0.00,0.00,0.00,0.00
2016-05-22 07:50:00,0,30593,0,0.00,0,0,0,0,21070,38186,5700,31710,0,0,0,0,0.00,0.00,0.00,0.00
2016-05-22 08:00:00,0,27248,0,0.00,0,0,0,0,19462,43640,6432,26197,0,0,0,0,0.00,0.00,0.00,0.00
2016-05-22 08:10:00,0,24239,0,0.00,0,2,1,0,21613,28207,1949,24020,0,0,0,0,0.00,0.00,0.00,0.00
2016-05-22 08:20:00,1,22876,0,0.00,0,2,1,0,12524,31593,6164,23935,0,0,0,0,0.00,0.00,0.00,0.00
2016-05-22 08:30:00,2,22428,0,0.00,0,2,1,2,17010,32980,5032,21706,0,0,0,0,0.00,0.00,0.00,0.00
2016-05-22 08:40:00,0,26698,0,0.00,0,2,1,0,20846,34000,4674,27859,0,0,0,0,0.00,0.00,0.00,0.00
2016-05-22 08:50:00,2,27907,0,0.00,0,2,1,2,20815,36564,4053,27842,0,0,0,0,0.00,0.00,0.00,0.00
2016-05-22 09:00:00,2,24443,0,0.00,2,2,0,2,17887,35357,5322,22902,0,0,0,0,0.00,0.00,0.00,0.00
2016-05-22 09:10:00,2,24514,0,0.00,2,2,0,2,17708,29875,3820,25971,0,0,0,0,0.00,0.00,0.00,0.00
2016-05-22 09:20:00,2,29898,0,0.00,0,2,1,2,26549,36989,3163,29178,0,0,0,0,0.00,0.00,0.00,0.00
2016-05-22 09:30:00,1,39176,0,0.00,0,2,1,2,34322,48742,3881,37807,0,0,0,0,0.00,0.00,0.00,0.00
2016-05-22 09:40:00,2,37585,0,0.00,2,2,0,2,25469,46049,7266,39381,0,0,0,0,0.00,0.00,0.00,0.00
2016-05-22 09:50:00,2,39228,0,0.00,2,2,0,2,27981,48817,5581,40700,0,0,0,0,0.00,0.00,0.00,0.00
2016-05-22 10:00:00,2,37522,0,0.00,2,2,0,2,29532,48206,5791,38574,0,0,0,0,0.00,0.00,0.00,0.00
2016-05-22 10:10:00,2,35902,0,0.00,2,2,0,2,27884,45095,6392,31883,0,0,0,0,0.00,0.00,0.00,0.00
2016-05-22 10:20:00,2,30733,0,0.00,2,2,0,2,21998,40540,5185,29578,0,0,0,0,0.00,0.00,0.00,0.00
2016-05-22 10:30:00,2,35547,0,0.00,2,2,0,2,26868,46345,5870,35644,0,0,0,0,0.00,0.00,0.00,0.00
2016-05-22 10:40:00,2,32662,0,0.00,2,2,0,2,28853,39010,3170,31508,0,0,0,0,0.00,0.00,0.00,0.00
2016-05-22 10:50:00,2,37190,0,0.00,2,2,0,2,31856,43913,3877,37247,0,0,0,0,0.00,0.00,0.00,0.00
2016-05-22 11:00:00,2,36330,0,0.00,2,2,0,2,27994,44838,6135,38764,0,0,0,0,0.00,0.00,0.00,0.00
2016-05-22 11:10:00,2,35590,0,0.00,2,2,0,2,29810,42188,3624,34520,0,0,0,0,0.00,0.00,0.00,0.00
2016-05-22 11:20:00,2,44595,0,0.00,2,2,0,2,33905,50000,5342,46496,0,0,0,0,0.00,0.00,0.00,0.00
2016-05-22 11:30:00,2,41904,0,0.00,2,2,0,2,36151,49447,4201,41458,0,0,0,0,0.00,0.00,0.00,0.00
2016-05-22 11:40:00,2,46327,0,0.00,2,2,0,2,42296,50000,3008,46240,0,0,0,0,0.00,0.00,0.00,0.00
2016-05-22 11:50:00,2,41818,0,0.00,2,2,0,2,37276,49408,4058,40529,0,0,0,0,0.00,0.00,0.00,0.00
2016-05-22 12:00:00,2,43472,0,0.00,2,2,0,2,35455,50000,3815,44426,0,0,0,0,0.00,0.00,0.00,0.00
2016-05-22 12:10:00,2,46640,0,0.00,2,2,0,2,40951,50000,2842,46767,0,0,0,0,0.00,0.00,0.00,0.00
2016-05-22 12:20:00,2,43110,0,0.00,2,2,0,2,34942,49272,4535,43190,0,0,0,0,0.00,0.00,0.00,0.00
2016-05-22 12:30:00,2,44500,0,0.00,2,2,0,2,39916,48995,3141,44397,0,0,0,0,0.00,0.00,0.00,0.00
2016-05-22 12:40:00,2,43533,0,0.00,2,2,0,2,37410,50000,4373,44646,0,0,0,0,0.00,0.00,0.00,0.00
2016-05-22 12:50:00,2,47613,0,0.00,2,2,0,2,41525,50000,2573,48748,0,0,0,0,0.00,0.00,0.00,0.00
2016-05-22 13:00:00,2,46475,0,0.00,2,2,0,2,39996,50000,3234,47639,0,0,0,0,0.00,0.00,0.00,0.00
2016-05-22 13:10:00,2,47294,0,0.00,2,2,0,2,39755,50000,3478,48574,0,0,0,0,0.00,0.00,0.00,0.00
2016-05-22 13:20:00,2,47578,0,0.00,0,2,1,2,40963,50000,3100,49110,0,0,0,0,0.00,0.00,0.00,0.00
2016-05-22 13:30:00,2,44754,0,0.00,0,2,1,2,35287,50000,4740,44929,0,0,0,0,0.00,0.00,0.00,0.00
2016-05-22 13:40:00,2,43977,0,0.00,2,2,0,2,38712,50000,3624,43716,0,0,0,0,0.00,0.00,0.00,0.00
2016-05-22 13:50:00,2,46997,0,0.00,2,2,0,2,42657,50000,2986,48222,0,0,0,0,0.00,0.00,0.00,0.00
2016-05-22 14:00:00,2,48422,0,0.00,2,2,0,2,44064,50000,1950,49272,0,0,0,0,0.00,0.00,0.00,0.00
2016-05-22 14:10:00,2,49228,0,0.00,2,2,0,2,45673,50000,1315,50000,0,0,0,0,0.00,0.00,0.00,0.00
2016-05-22 14:20:00,2,49368,0,0.00,2,2,0,2,46922,50000,978,49902,0,0,0,0,0.00,0.00,0.00,0.00
2016-05-22 14:30:00,2,48953,0,0.00,0,2,1,2,43536,50000,2008,50000,0,0,0,0,0.00,0.00,0.00,0.00
2016-05-22 14:40:00,2,48460,0,0.00,2,2,0,2,43895,50000,2283,49642,0,0,0,0,0.00,0.00,0.00,0.00
2016-05-22 14:50:00,2,47810,0,0.00,0,2,1,2,43785,50000,2179,48128,0,0,0,0,0.00,0.00,0.00,0.00
2016-05-22 15:00:00,2,46815,0,0.00,2,2,0,2,40463,50000,3311,48040,0,0,0,0,0.00,0.00,0.00,0.00
2016-05-22 15:10:00,2,37867,0,0.00,2,2,0,2,32892,43496,3165,37640,0,0,0,0,0.00,0.00,0.00,0.00
2016-05-22 15:20:00,2,46083,0,0.00,2,2,0,2,41004,50000,3275,46686,0,0,0,0,0.00,0.00,0.00,0.00
2016-05-22 15:30:00,2,45113,0,0.00,2,2,0,2,40047,49109,3059,45396,0,0,0,0,0.00,0.00,0.00,0.00
2016-05-22 15:40:00,2,46017,0,0.00,2,2,0,2,39404,50000,3776,46876,0,0,0,0,0.00,0.00,0.00,0.00
2016-05-22 15:50:00,2,47847,0,0.00,2,2,0,2,39818,50000,3256,49822,0,0,0,0,0.00,0.00,0.00,0.00
2016-05-22 16:00:00,2,44328,0,0.00,2,2,0,2,38560,49330,3550,45536,0,0,0,0,0.00,0.00,0.00,0.00
2016-05-22 16:10:00,2,41067,0,0.00,2,2,0,2,33274,50000,4425,40618,0,0,0,0,0.00,0.00,0.00,0.00
2016-05-22 16:20:00,2,41178,0,0.00,2,2,0,2,33281,46211,3960,40838,0,0,0,0,0.00,0.00,0.00,0.00
2016-05-22 16:30:00,2,38516,0,0.00,2,2,0,2,36330,44519,2220,37977,0,0,0,0,0.00,0.00,0.00,0.00
2016-05-22 16:40:00,2,37067,0,0.00,2,2,0,2,28522,41579,3470,38235,0,0,0,0,0.00,0.00,0.00,0.00
2016-05-22 16:50:00,2,41096,0,0.00,2,2,0,2,34181,45835,3420,41954,0,0,0,0,0.00,0.00,0.00,0.00
2016-05-22 17:00:00,2,41457,0,0.00,2,2,0,2,36429,50000,4513,40484,0,0,0,0,0.00,0.00,0.00,0.00
2016-05-22 17:10:00,2,39631,0,0.00,2,2,0,2,33874,46607,4513,39443,0,0,0,0,0.00,0.00,0.00,0.00
2016-05-22 17:20:00,2,36705,0,0.00,2,2,0,2,28022,44477,6631,36162,0,0,0,0,0.00,0.00,0.00,0.00
2016-05-22 17:30:00,2,34534,0,0.00,2,2,0,2,29764,38539,2721,34581,0,0,0,0,0.00,0.00,0.00,0.00
2016-05-22 17:40:00,2,31628,0,0.00,2,2,0,2,22297,46205,7445,30458,0,0,0,0,0.00,0.00,0.00,0.00
2016-05-22 17:50:00,2,29494,0,0.00,2,2,0,2,21556,40229,6326,26680,0,0,0,0,0.00,0.00,0.00,0.00
2016-05-22 18:00:00,2,34628,0,0.00,2,2,0,2,19613,47844,7973,35212,0,0,0,0,0.00,0.00,0.00,0.00
2016-05-22 18:10:00,2,14679,0,0.00,2,2,0,2,12033,17577,1937,15276,0,0,0,0,0.00,0.00,0.00,0.00
2016-05-22 18:20:00,2,17348,0,0.00,2,2,0,2,12823,30063,5118,15744,0,0,0,0,0.00,0.00,0.00,0.00
2016-05-22 18:30:00,2,25837,0,0.00,2,2,0,2,18290,37484,5971,26210,0,0,0,0,0.00,0.00,0.00,0.00
2016-05-22 18:40:00,2,10666,0,0.00,2,2,0,2,8820,12564,1213,10394,0,0,0,0,0.00,0.00,0.00,0.00
2016-05-22 18:50:00,2,9540,0,0.00,2,2,0,2,9164,10216,286,9528,0,0,0,0,0.00,0.00,0.00,0.00
2016-05-22 19:00:00,2,10651,0,0.00,2,2,0,2,9735,11443,524,10741,0,0,0,0,0.00,0.00,0.00,0.00
2016-05-22 19:10:00,2,14678,0,0.00,2,2,0,2,11178,19289,2402,14495,0,0,0,0,0.00,0.00,0.00,0.00
2016-05-22 19:20:00,2,18749,0,0.00,2,2,0,2,14718,21912,1911,18904,0,0,0,0,0.00,0.00,0.00,0.00
2016-05-22 19:30:00,2,18635,0,0.00,2,2,0,2,15729,21649,1641,18622,0,0,0,0,0.00,0.00,0.00,0.00
2016-05-22 19:40:00,2,13093,0,0.00,2,2,0,2,11521,15192,1130,13042,0,0,0,0,0.00,0.00,0.00,0.00
2016-05-22 19:50:00,2,11790,0,0.00,2,2,0,2,10556,13076,835,11718,0,0,0,0,0.00,0.00,0.00,0.00
2016-05-22 20:00:00,2,10707,0,0.00,2,2,0,2,9843,12100,649,10590,0,0,0,0,0.00,0.00,0.00,0.00
2016-05-22 20:10:00,2,11348,0,0.00,2,2,0,2,10493,12359,613,11374,0,0,0,0,0.00,0.00,0.00,0.00
2016-05-22 20:20:00,2,11035,0,0.00,2,2,0,2,10292,11736,397,10960,0,0,0,0,0.00,0.00,0.00,0.00
2016-05-22 20:30:00,2,11445,0,0.00,2,2,0,2,9275,13852,1212,11186,0,0,0,0,0.00,0.00,0.00,0.00
2016-05-22 20:40:00,2,14510,0,0.00,2,2,0,2,12342,18931,2159,13740,0,0,0,0,0.00,0.00,0.00,0.00
2016-05-22 20:50:00,2,11874,0,0.00,2,2,0,2,10529,13389,955,11435,0,0,0,0,0.00,0.00,0.00,0.00
2016-05-22 21:00:00,2,11452,0,0.00,2,2,0,2,10321,13293,930,11386,0,0,0,0,0.00,0.00,0.00,0.00
2016-05-22 21:10:00,2,14088,0,0.00,2,2,0,2,11738,15955,1088,13895,0,0,0,0,0.00,0.00,0.00,0.00
2016-05-22 21:20:00,2,13133,0,0.00,2,2,0,2,9238,16090,1897,13256,0,0,0,0,0.00,0.00,0.00,0.00
2016-05-22 21:30:00,2,16090,0,0.00,2,2,0,2,12747,19839,2102,16390,0,0,0,0,0.00,0.00,0.00,0.00
2016-05-22 21:40:00,2,19862,0,0.00,2,2,0,2,13523,27579,3792,19708,0,0,0,0,0.00,0.00,0.00,0.00
2016-05-22 21:50:00,2,24635,0,0.00,2,2,0,2,17867,31876,5213,24275,0,0,0,0,0.00,0.00,0.00,0.00
2016-05-22 22:00:00,2,23901,0,0.00,2,2,0,2,19699,31718,3879,22650,0,0,0,0,0.00,0.00,0.00,0.00
2016-05-22 22:10:00,2,21170,0,0.00,2,2,0,2,13394,33562,6801,20123,0,0,0,0,0.00,0.00,0.00,0.00
2016-05-22 22:20:00,2,16690,0,0.00,2,2,0,2,12903,21140,2988,16346,0,0,0,0,0.00,0.00,0.00,0.00
2016-05-22 22:30:00,2,16499,0,0.00,2,2,0,2,12292,20417,2633,16879,0,0,0,0,0.00,0.00,0.00,0.00
2016-05-22 22:40:00,2,15052,0,0.00,2,2,0,2,10937,21848,2842,14686,0,0,0,0,0.00,0.00,0.00,0.00
2016-05-22 22:50:00,2,14488,0,0.00,2,2,0,2,12183,19689,2508,13318,0,0,0,0,0.00,0.00,0.00,0.00
2016-05-22 23:00:00,2,13808,0,0.00,2,2,0,2,9663,19093,3046,14456,0,0,0,0,0.00,0.00,0.00,0.00
2016-05-22 23:10:00,2,12992,0,0.00,2,2,0,2,10830,15749,1660,12724,0,0,0,0,0.00,0.00,0.00,0.00
2016-05-22 23:20:00,2,14912,0,0.00,2,2,0,2,11177,21349,3439,13694,0,0,0,0,0.00,0.00,0.00,0.00
2016-05-22 23:30:00,2,13424,0,0.00,2,2,0,2,9131,20045,3036,12552,0,0,0,0,0.00,0.00,0.00,0.00
2016-05-22 23:40:00,2,16877,0,0.00,2,2,0,2,11769,24616,4199,15621,0,0,0,0,0.00,0.00,0.00,0.00
2016-05-22 23:50:00,2,17842,0,0.00,2,2,0,2,13575,20014,1676,18154,0,0,0,0,0.00,0.00,0.00,0.00
